Date String (YYYY-MM-DD hh:mm:ss) UTC,Instrument flags,Ambient pressure (hPa),Sample flow (lpm),Bypass flow (lpm),Sample temperature (°C),Ambient temperature (°C),ASC tube jacket temperature (°C),LED temperature (°C),Box temperature (°C),Sample RH (%),Span deviation,Mass concentration (μg/m³),Mass concentration (μg/m³),Mass concentration (μg/m³)
DateTimeUTC,F1_M11,P_M11,Q1_M11,Q2_M11,T1_M11,T2_M11,T3_M11,T4_M11,T5_M11,U1_M11,ZSPAN_M11,X0_M11,X2_M11,X1_M11
2022-08-19 01:00:00,,0828.7,5.01,0.00,29.4,27.2,00.0,38.1,31.1,22.6,0000.0,0018.95,0007.12,0005.98
2022-08-19 01:01:00,,0828.7,4.99,0.00,29.3,27.4,00.0,38.1,31.1,22.8,0000.0,0018.92,0007.16,0005.99
2022-08-19 01:02:00,,0828.6,5.01,0.00,29.4,27.6,00.0,38.1,31.2,22.9,0000.0,0019.16,0007.17,0006.00
2022-08-19 01:03:00,,0828.5,4.99,0.00,29.4,27.8,00.0,38.1,31.3,23.2,0000.0,0019.49,0007.18,0006.01
2022-08-19 01:04:00,,0828.8,5.00,0.00,29.4,28.0,00.0,38.1,31.4,23.1,0000.0,0020.36,0007.19,0006.01
2022-08-19 01:05:00,,0829.0,5.00,0.00,29.5,28.2,00.0,38.2,31.4,22.8,0000.0,0020.85,0007.19,0006.02
2022-08-19 01:06:00,,0828.7,5.00,0.00,29.5,28.4,00.0,38.2,31.5,22.8,0000.0,0020.35,0007.19,0006.03
2022-08-19 01:07:00,,0828.9,4.99,0.00,29.6,28.5,00.0,38.2,31.6,22.8,0000.0,0020.55,0007.14,0006.04
2022-08-19 01:08:00,,0829.1,5.01,0.00,29.6,28.3,00.0,38.2,31.5,22.5,0000.0,0019.58,0007.04,0006.03
2022-08-19 01:09:00,,0829.1,4.99,0.00,29.5,27.6,00.0,38.2,31.3,22.7,0000.0,0019.01,0006.98,0006.04
2022-08-19 01:10:00,,0829.0,5.01,0.00,29.4,27.2,00.0,38.1,31.2,22.8,0000.0,0017.57,0007.03,0006.04
2022-08-19 01:11:00,,0829.0,5.01,0.00,29.4,27.2,00.0,38.1,31.2,22.8,0000.0,0016.62,0007.07,0006.05
2022-08-19 01:12:00,,0828.8,5.00,0.00,29.3,27.3,00.0,38.1,31.1,23.1,0000.0,0017.14,0007.05,0006.05
2022-08-19 01:13:00,,0829.1,4.99,0.00,29.3,27.5,00.0,38.1,31.2,23.0,0000.0,0017.69,0007.06,0006.06
2022-08-19 01:14:00,,0829.1,5.00,0.00,29.4,27.7,00.0,38.1,31.3,23.1,0000.0,0017.82,0007.06,0006.07
2022-08-19 01:15:00,,0829.0,5.01,0.00,29.4,27.9,00.0,38.1,31.3,23.0,0000.0,0016.87,0007.04,0006.07
2022-08-19 01:16:00,,0828.9,4.99,0.00,29.4,28.1,00.0,38.1,31.4,22.9,0000.0,0016.25,0007.05,0006.07
2022-08-19 01:17:00,,0828.7,4.99,0.00,29.5,28.3,00.0,38.2,31.5,22.7,0000.0,0016.03,0007.04,0006.07
2022-08-19 01:18:00,,0828.8,5.01,0.00,29.5,28.5,00.0,38.2,31.5,22.6,0000.0,0016.03,0007.01,0006.07
2022-08-19 01:19:00,,0828.9,5.00,0.00,29.6,28.6,00.0,38.2,31.6,22.2,0000.0,0016.19,0007.00,0006.09
2022-08-19 01:20:00,,0828.7,5.00,0.00,29.6,28.2,00.0,38.2,31.4,22.2,0000.0,0016.82,0007.02,0006.09
2022-08-19 01:21:00,,0828.8,5.00,0.00,29.5,27.4,00.0,38.2,31.2,22.7,0000.0,0017.01,0006.97,0006.10
2022-08-19 01:22:00,,0828.6,4.99,0.00,29.5,27.2,00.0,38.1,31.2,23.1,0000.0,0017.73,0006.94,0006.09
2022-08-19 01:23:00,,0828.9,5.00,0.00,29.4,27.2,00.0,38.1,31.2,22.7,0000.0,0018.33,0006.99,0006.09
2022-08-19 01:24:00,,0828.8,4.99,0.00,29.4,27.4,00.0,38.1,31.1,22.5,0000.0,0018.39,0007.00,0006.08
2022-08-19 01:25:00,,0829.2,5.01,0.00,29.4,27.6,00.0,38.1,31.2,22.6,0000.0,0019.04,0007.00,0006.07
2022-08-19 01:26:00,,0829.2,4.99,0.00,29.4,27.8,00.0,38.1,31.3,22.6,0001.0,0019.37,0006.98,0006.08
2022-08-19 01:27:00,,0829.2,5.00,0.00,29.4,28.0,00.0,38.1,31.4,22.6,0002.9,0019.49,0006.95,0006.07
2022-08-19 01:28:00,,0829.1,5.00,0.00,29.4,28.2,00.0,38.2,31.4,22.2,0002.9,0019.18,0006.93,0006.06
2022-08-19 01:29:00,,0828.7,5.00,0.00,29.5,28.3,00.0,38.2,31.5,22.1,0001.5,0018.34,0006.94,0006.06
2022-08-19 01:30:00,,0828.7,4.99,0.00,29.5,28.5,00.0,38.2,31.5,22.1,0000.0,0017.77,0006.96,0006.06
2022-08-19 01:31:00,,0828.7,5.00,0.00,29.6,28.2,00.0,38.2,31.4,22.4,0000.0,0017.14,0006.96,0006.04
2022-08-19 01:32:00,,0828.7,5.00,0.00,29.5,27.4,00.0,38.2,31.2,21.9,0000.0,0016.85,0007.00,0006.04
2022-08-19 01:33:00,,0828.7,5.00,0.00,29.4,27.1,00.0,38.1,31.2,22.0,0000.0,0015.71,0006.96,0006.04
2022-08-19 01:34:00,,0828.7,5.00,0.00,29.4,27.1,00.0,38.1,31.1,21.9,0000.0,0014.35,0006.89,0006.04
2022-08-19 01:35:00,,0828.7,5.01,0.00,29.3,27.3,00.0,38.1,31.1,21.9,0000.0,0013.86,0006.86,0006.03
2022-08-19 01:36:00,,0828.7,4.99,0.00,29.3,27.5,00.0,38.1,31.1,21.8,0000.8,0012.84,0006.84,0006.04
2022-08-19 01:37:00,,0828.7,4.99,0.00,29.3,27.7,00.0,38.1,31.2,21.8,0000.8,0013.39,0006.81,0006.03
2022-08-19 01:38:00,,0828.7,4.99,0.00,29.4,27.9,00.0,38.1,31.3,21.8,0000.0,0013.91,0006.82,0006.02
2022-08-19 01:39:00,,0828.7,5.00,0.00,29.4,28.1,00.0,38.1,31.3,21.8,0000.0,0014.75,0006.87,0006.03
2022-08-19 01:40:00,,0828.8,5.00,0.00,29.4,28.2,00.0,38.1,31.4,21.6,0000.7,0014.83,0006.90,0006.04
2022-08-19 01:41:00,,0829.3,5.00,0.00,29.5,28.4,00.0,38.2,31.5,21.7,0000.6,0014.96,0006.94,0006.04
2022-08-19 01:42:00,,0829.3,4.99,0.00,29.5,28.6,00.0,38.2,31.6,21.5,0000.0,0014.74,0006.93,0006.05
2022-08-19 01:43:00,,0829.3,5.01,0.00,29.6,28.5,00.0,38.2,31.5,21.1,0000.0,0014.06,0006.87,0006.04
2022-08-19 01:44:00,,0829.3,5.00,0.00,29.5,27.7,00.0,38.2,31.3,20.9,0000.0,0013.98,0006.86,0006.01
2022-08-19 01:45:00,,0829.3,5.00,0.00,29.4,27.2,00.0,38.1,31.1,21.2,0000.0,0014.07,0006.86,0006.00
2022-08-19 01:46:00,,0829.4,4.99,0.00,29.4,27.2,00.0,38.1,31.1,21.1,0000.0,0014.31,0006.89,0006.00
2022-08-19 01:47:00,,0829.3,5.00,0.00,29.3,27.3,00.0,38.1,31.1,20.5,0000.0,0015.43,0006.90,0005.99
2022-08-19 01:48:00,,0829.3,4.99,0.00,29.3,27.4,00.0,38.1,31.1,20.8,0000.0,0014.73,0006.88,0005.98
2022-08-19 01:49:00,,0829.3,5.01,0.00,29.3,27.6,00.0,38.1,31.2,21.1,0000.0,0013.72,0006.86,0005.97
2022-08-19 01:50:00,,0829.0,5.01,0.00,29.3,27.8,00.0,38.1,31.3,21.2,0000.0,0012.97,0006.80,0005.95
2022-08-19 01:51:00,,0828.9,5.00,0.00,29.4,28.0,00.0,38.1,31.3,21.4,0000.0,0013.00,0006.76,0005.93
2022-08-19 01:52:00,,0828.9,5.00,0.00,29.4,28.2,00.0,38.1,31.4,21.5,0000.0,0012.86,0006.70,0005.92
2022-08-19 01:53:00,,0828.8,4.98,0.00,29.5,28.4,00.0,38.2,31.5,21.6,0000.0,0012.84,0006.69,0005.92
2022-08-19 01:54:00,,0828.9,5.00,0.00,29.5,28.5,00.0,38.2,31.5,21.6,0000.0,0013.06,0006.74,0005.91
2022-08-19 01:55:00,,0828.8,5.01,0.00,29.6,28.5,00.0,38.2,31.6,21.9,0000.0,0014.35,0006.77,0005.91
2022-08-19 01:56:00,,0828.8,5.01,0.00,29.5,27.9,00.0,38.2,31.3,22.4,0000.0,0015.04,0006.79,0005.91
2022-08-19 01:57:00,,0828.8,5.00,0.00,29.5,27.3,00.0,38.1,31.2,22.4,0000.0,0015.60,0006.80,0005.91
2022-08-19 01:58:00,,0828.8,5.00,0.00,29.4,27.1,00.0,38.1,31.1,22.6,0000.0,0014.55,0006.79,0005.89
2022-08-19 01:59:00,,0828.8,5.00,0.00,29.3,27.2,00.0,38.1,31.0,22.8,0000.0,0015.40,0006.81,0005.89
